| time (UTC) | temp F | wind direction | speed MPH | gust MPH | rain 1hr in | rain 24hr in | rain mn in | humidity % | barometer mb |
| 20260506224509 | 55 | 20 | 2.0 | 3.0 | 0.02 | 0.58 | 0.58 | 91 | 1014.0 |
| 20260506224006 | 55 | 350 | 2.0 | 3.0 | 0.02 | 0.58 | 0.58 | 91 | 1013.7 |
| 20260506223502 | 55 | 345 | 1.0 | 3.0 | 0.00 | 0.58 | 0.58 | 91 | 1013.6 |
| 20260506222959 | 55 | 25 | 1.0 | 2.0 | 0.02 | 0.58 | 0.58 | 91 | 1013.9 |
| 20260506222456 | 55 | 37 | 2.0 | 2.0 | 0.00 | 0.57 | 0.57 | 91 | 1013.7 |
| 20260506221952 | 55 | 327 | 3.0 | 3.0 | 0.05 | 0.57 | 0.57 | 91 | 1013.5 |
| 20260506221449 | 55 | 13 | 0.0 | 2.0 | 0.07 | 0.57 | 0.57 | 90 | 1013.4 |
| 20260506220947 | 55 | 141 | 0.0 | 3.0 | 0.02 | 0.57 | 0.57 | 90 | 1013.6 |
| 20260506220442 | 56 | 38 | 2.0 | 3.0 | 0.00 | 0.56 | 0.56 | 90 | 1013.6 |
| 20260506215934 | 56 | 67 | 1.0 | 2.0 | 0.00 | 0.56 | 0.56 | 90 | 1013.5 |
| 20260506215430 | 55 | 92 | 2.0 | 2.0 | 0.00 | 0.56 | 0.56 | 89 | 1013.9 |
| 20260506214926 | 56 | 13 | 3.0 | 4.0 | 0.02 | 0.56 | 0.56 | 89 | 1013.5 |
| 20260506214423 | 56 | 345 | 0.0 | 2.0 | 0.02 | 0.56 | 0.56 | 89 | 1013.5 |
| 20260506213921 | 56 | 1 | 2.0 | 4.0 | 0.00 | 0.56 | 0.56 | 89 | 1013.5 |
| 20260506213418 | 56 | 349 | 5.0 | 5.0 | 0.00 | 0.56 | 0.56 | 89 | 1013.5 |
| 20260506212916 | 56 | 5 | 2.0 | 5.0 | 0.00 | 0.56 | 0.56 | 90 | 1013.2 |
| 20260506212411 | 57 | 45 | 3.0 | 4.0 | 0.02 | 0.56 | 0.56 | 89 | 1012.9 |
| 20260506211906 | 57 | 17 | 4.0 | 6.0 | 0.02 | 0.56 | 0.56 | 89 | 1013.0 |
| 20260506211403 | 57 | 1 | 2.0 | 2.0 | 0.00 | 0.56 | 0.56 | 89 | 1013.0 |
| 20260506210900 | 57 | 310 | 0.0 | 2.0 | 0.00 | 0.56 | 0.56 | 88 | 1012.7 |
| 20260506210356 | 57 | 2 | 1.0 | 3.0 | 0.00 | 0.56 | 0.56 | 88 | 1012.9 |
| 20260506205854 | 57 | 21 | 5.0 | 5.0 | 0.00 | 0.56 | 0.56 | 88 | 1012.9 |
| 20260506205349 | 58 | 316 | 4.0 | 7.0 | 0.00 | 0.56 | 0.56 | 87 | 1012.7 |
| 20260506204846 | 59 | 301 | 3.0 | 4.0 | 0.00 | 0.56 | 0.56 | 87 | 1012.5 |
| 20260506204344 | 59 | 352 | 2.0 | 4.0 | 0.00 | 0.56 | 0.56 | 85 | 1012.6 |
| 20260506203841 | 59 | 340 | 2.0 | 3.0 | 0.00 | 0.56 | 0.56 | 85 | 1012.4 |
| 20260506203338 | 58 | 327 | 0.0 | 2.0 | 0.00 | 0.56 | 0.56 | 86 | 1012.4 |
| 20260506202835 | 59 | 273 | 2.0 | 3.0 | 0.00 | 0.56 | 0.56 | 84 | 1012.3 |
| 20260506202332 | 59 | 350 | 2.0 | 5.0 | 0.00 | 0.56 | 0.56 | 86 | 1012.2 |
| 20260506201829 | 59 | 256 | 0.0 | 4.0 | 0.00 | 0.56 | 0.56 | 87 | 1012.5 |
| 20260506201326 | 59 | 259 | 2.0 | 7.0 | 0.00 | 0.56 | 0.56 | 87 | 1012.5 |
| 20260506200822 | 58 | 246 | 4.0 | 4.0 | 0.00 | 0.56 | 0.56 | 90 | 1012.2 |
| 20260506200319 | 59 | 345 | 2.0 | 5.0 | 0.00 | 0.56 | 0.56 | 88 | 1012.0 |
| 20260506195815 | 59 | 336 | 5.0 | 5.0 | 0.00 | 0.56 | 0.56 | 88 | 1012.2 |
| 20260506195313 | 59 | 339 | 7.0 | 8.0 | 0.02 | 0.56 | 0.56 | 90 | 1012.1 |
| 20260506194809 | 59 | 322 | 4.0 | 7.0 | 0.02 | 0.56 | 0.56 | 89 | 1012.2 |
| 20260506194306 | 59 | 350 | 2.0 | 4.0 | 0.00 | 0.55 | 0.55 | 89 | 1012.1 |
| 20260506193804 | 59 | 271 | 2.0 | 3.0 | 0.00 | 0.55 | 0.55 | 88 | 1012.2 |
| 20260506193300 | 59 | 357 | 3.0 | 4.0 | 0.00 | 0.55 | 0.55 | 89 | 1012.1 |
| 20260506192756 | 60 | 8 | 2.0 | 6.0 | 0.00 | 0.55 | 0.55 | 87 | 1012.0 |
| 20260506192253 | 61 | 69 | 2.0 | 4.0 | 0.00 | 0.55 | 0.55 | 87 | 1011.7 |
| 20260506191750 | 61 | 316 | 1.0 | 3.0 | 0.00 | 0.55 | 0.55 | 86 | 1011.7 |
| 20260506191246 | 62 | 0 | 3.0 | 5.0 | 0.00 | 0.55 | 0.55 | 85 | 1011.5 |
| 20260506190744 | 62 | 316 | 2.0 | 3.0 | 0.00 | 0.55 | 0.55 | 85 | 1011.7 |
| 20260506190240 | 61 | 309 | 0.0 | 4.0 | 0.00 | 0.55 | 0.55 | 85 | 1011.4 |
| 20260506185737 | 61 | 238 | 3.0 | 8.0 | 0.00 | 0.55 | 0.55 | 85 | 1011.7 |
| 20260506185233 | 61 | 120 | 2.0 | 2.0 | 0.00 | 0.55 | 0.55 | 85 | 1012.0 |
| 20260506184731 | 62 | 267 | 2.0 | 5.0 | 0.00 | 0.55 | 0.55 | 85 | 1011.5 |
| 20260506184228 | 61 | 329 | 4.0 | 5.0 | 0.00 | 0.55 | 0.55 | 83 | 1011.5 |
| 20260506183725 | 61 | 314 | 2.0 | 4.0 | 0.00 | 0.55 | 0.55 | 83 | 1011.8 |
| 20260506183221 | 61 | 8 | 4.0 | 9.0 | 0.00 | 0.55 | 0.55 | 83 | 1011.7 |
| 20260506182718 | 61 | 22 | 3.0 | 5.0 | 0.00 | 0.55 | 0.55 | 85 | 1011.7 |
| 20260506182215 | 61 | 44 | 3.0 | 4.0 | 0.00 | 0.55 | 0.55 | 84 | 1011.8 |
| 20260506181713 | 61 | 166 | 2.0 | 12.0 | 0.00 | 0.55 | 0.55 | 85 | 1011.5 |
| 20260506181210 | 61 | 319 | 1.0 | 6.0 | 0.00 | 0.55 | 0.55 | 85 | 1011.8 |
| 20260506180707 | 61 | 216 | 2.0 | 5.0 | 0.00 | 0.55 | 0.55 | 84 | 1011.5 |
| 20260506180203 | 61 | 151 | 1.0 | 3.0 | 0.00 | 0.55 | 0.55 | 85 | 1011.9 |
| 20260506175659 | 61 | 252 | 3.0 | 5.0 | 0.00 | 0.55 | 0.55 | 84 | 1012.0 |
| 20260506175156 | 61 | 212 | 4.0 | 4.0 | 0.00 | 0.55 | 0.55 | 85 | 1011.9 |
| 20260506174654 | 61 | 305 | 3.0 | 9.0 | 0.00 | 0.55 | 0.55 | 85 | 1011.9 |
| 20260506174151 | 61 | 0 | 1.0 | 5.0 | 0.00 | 0.55 | 0.55 | 87 | 1011.8 |
| 20260506173649 | 61 | 349 | 3.0 | 4.0 | 0.00 | 0.55 | 0.55 | 86 | 1012.2 |
| 20260506173145 | 62 | 351 | 4.0 | 7.0 | 0.00 | 0.55 | 0.55 | 85 | 1012.1 |
| 20260506172642 | 62 | 239 | 3.0 | 5.0 | 0.00 | 0.55 | 0.55 | 83 | 1012.0 |
| 20260506172139 | 62 | 356 | 3.0 | 6.0 | 0.00 | 0.55 | 0.55 | 83 | 1012.0 |
| 20260506171631 | 61 | 35 | 3.0 | 4.0 | 0.00 | 0.55 | 0.55 | 86 | 1011.9 |
| 20260506171128 | 61 | 31 | 2.0 | 5.0 | 0.00 | 0.55 | 0.55 | 86 | 1012.0 |
| 20260506170625 | 61 | 303 | 4.0 | 8.0 | 0.00 | 0.55 | 0.55 | 90 | 1011.9 |
| 20260506170117 | 61 | 309 | 0.0 | 4.0 | 0.02 | 0.55 | 0.55 | 89 | 1012.1 |
| 20260506165616 | 61 | 281 | 4.0 | 12.0 | 0.02 | 0.55 | 0.55 | 91 | 1011.9 |
| 20260506165111 | 61 | 55 | 1.0 | 3.0 | 0.00 | 0.55 | 0.55 | 92 | 1011.9 |
| 20260506164609 | 61 | 89 | 1.0 | 2.0 | 0.02 | 0.55 | 0.55 | 92 | 1011.8 |
| 20260506164106 | 61 | 151 | 2.0 | 2.0 | 0.05 | 0.55 | 0.55 | 91 | 1011.8 |
| 20260506163602 | 61 | 210 | 0.0 | 4.0 | 0.02 | 0.54 | 0.54 | 89 | 1011.9 |
| 20260506163057 | 61 | 168 | 0.0 | 3.0 | 0.00 | 0.54 | 0.54 | 90 | 1011.8 |
| 20260506162553 | 61 | 230 | 0.0 | 5.0 | 0.00 | 0.54 | 0.54 | 89 | 1011.7 |
| 20260506162045 | 61 | 133 | 0.0 | 5.0 | 0.00 | 0.54 | 0.54 | 91 | 1011.5 |
| 20260506161543 | 61 | 75 | 1.0 | 5.0 | 0.02 | 0.54 | 0.54 | 91 | 1011.4 |
| 20260506161039 | 60 | 285 | 2.0 | 11.0 | 0.02 | 0.54 | 0.54 | 91 | 1011.5 |
| 20260506160537 | 60 | 73 | 1.0 | 3.0 | 0.07 | 0.54 | 0.54 | 91 | 1011.7 |
| 20260506160034 | 61 | 103 | 0.0 | 2.0 | 0.05 | 0.53 | 0.53 | 91 | 1011.4 |
| 20260506155533 | 61 | 252 | 2.0 | 9.0 | 0.02 | 0.52 | 0.52 | 90 | 1011.3 |
| 20260506153709 | 60 | 339 | 2.0 | 3.0 | 0.00 | 0.52 | 0.52 | 92 | 1011.1 |
| 20260506153207 | 60 | 237 | 3.0 | 5.0 | 0.02 | 0.52 | 0.52 | 92 | 1011.3 |
| 20260506152704 | 60 | 37 | 2.0 | 2.0 | 0.02 | 0.52 | 0.52 | 92 | 1011.3 |
| 20260506152201 | 60 | 134 | 3.0 | 3.0 | 0.02 | 0.52 | 0.52 | 92 | 1011.0 |
| 20260506151700 | 60 | 352 | 0.0 | 3.0 | 0.02 | 0.52 | 0.52 | 92 | 1010.9 |
| 20260506151156 | 61 | 163 | 5.0 | 6.0 | 0.02 | 0.51 | 0.51 | 92 | 1011.1 |
| 20260506150653 | 60 | 348 | 2.0 | 3.0 | 0.02 | 0.51 | 0.51 | 93 | 1010.8 |
| 20260506150150 | 60 | 223 | 3.0 | 3.0 | 0.02 | 0.51 | 0.51 | 93 | 1010.9 |
| 20260506145647 | 60 | 145 | 1.0 | 2.0 | 0.02 | 0.50 | 0.50 | 94 | 1011.0 |
| 20260506145143 | 60 | 116 | 0.0 | 3.0 | 0.02 | 0.50 | 0.50 | 94 | 1010.7 |
| 20260506144641 | 60 | 99 | 1.0 | 3.0 | 0.05 | 0.50 | 0.50 | 94 | 1010.9 |
| 20260506144138 | 60 | 282 | 2.0 | 2.0 | 0.05 | 0.50 | 0.50 | 94 | 1010.7 |
| 20260506143635 | 59 | 37 | 0.0 | 1.0 | 0.02 | 0.49 | 0.49 | 94 | 1011.1 |
| 20260506143133 | 59 | 162 | 0.0 | 1.0 | 0.02 | 0.49 | 0.49 | 94 | 1010.9 |
| 20260506142632 | 59 | 214 | 2.0 | 4.0 | 0.02 | 0.49 | 0.49 | 94 | 1010.8 |
| 20260506142129 | 59 | 124 | 0.0 | 2.0 | 0.00 | 0.48 | 0.48 | 94 | 1010.6 |
| 20260506141626 | 59 | 220 | 1.0 | 2.0 | 0.00 | 0.48 | 0.48 | 94 | 1010.4 |
| 20260506141125 | 59 | 180 | 2.0 | 2.0 | 0.02 | 0.48 | 0.48 | 94 | 1010.5 |
| 20260506140622 | 59 | 269 | 0.0 | 2.0 | 0.02 | 0.48 | 0.48 | 93 | 1010.9 |
| 20260506140119 | 59 | 147 | 0.0 | 3.0 | 0.00 | 0.48 | 0.48 | 93 | 1010.7 |
| 20260506135616 | 59 | 226 | 0.0 | 2.0 | 0.00 | 0.48 | 0.48 | 93 | 1010.7 |
| 20260506135112 | 59 | 219 | 2.0 | 4.0 | 0.00 | 0.48 | 0.48 | 93 | 1010.8 |
| 20260506134609 | 59 | 203 | 3.0 | 5.0 | 0.00 | 0.48 | 0.48 | 93 | 1010.8 |
| 20260506134104 | 59 | 105 | 3.0 | 9.0 | 0.00 | 0.48 | 0.48 | 94 | 1010.7 |
| 20260506133602 | 59 | 128 | 2.0 | 3.0 | 0.00 | 0.48 | 0.48 | 94 | 1010.8 |
| 20260506133059 | 59 | 173 | 0.0 | 3.0 | 0.00 | 0.48 | 0.48 | 94 | 1010.7 |
| 20260506132556 | 58 | 186 | 0.0 | 2.0 | 0.02 | 0.48 | 0.48 | 94 | 1010.6 |
| 20260506132053 | 58 | 244 | 1.0 | 2.0 | 0.05 | 0.48 | 0.48 | 94 | 1010.8 |
| 20260506131550 | 58 | 215 | 0.0 | 3.0 | 0.05 | 0.48 | 0.48 | 94 | 1010.7 |
| 20260506131047 | 58 | 85 | 3.0 | 4.0 | 0.07 | 0.47 | 0.47 | 94 | 1010.9 |
| 20260506130543 | 58 | 214 | 1.0 | 2.0 | 0.09 | 0.47 | 0.47 | 94 | 1010.8 |
| 20260506130041 | 58 | 129 | 2.0 | 3.0 | 0.09 | 0.46 | 0.46 | 94 | 1010.7 |
| 20260506125539 | 58 | 135 | 0.0 | 4.0 | 0.07 | 0.45 | 0.45 | 94 | 1010.7 |
| 20260506125037 | 58 | 130 | 3.0 | 4.0 | 0.07 | 0.45 | 0.45 | 94 | 1010.9 |
| 20260506124534 | 58 | 137 | 2.0 | 4.0 | 0.12 | 0.44 | 0.44 | 94 | 1010.7 |
| 20260506124032 | 58 | 218 | 3.0 | 6.0 | 0.09 | 0.43 | 0.43 | 94 | 1010.7 |
| 20260506123529 | 58 | 156 | 0.0 | 5.0 | 0.02 | 0.42 | 0.42 | 94 | 1010.6 |
| 20260506123028 | 58 | 215 | 1.0 | 4.0 | 0.02 | 0.42 | 0.42 | 95 | 1010.5 |
| 20260506122524 | 57 | 108 | 2.0 | 5.0 | 0.02 | 0.42 | 0.42 | 95 | 1010.5 |
| 20260506122022 | 57 | 55 | 1.0 | 3.0 | 0.02 | 0.41 | 0.41 | 96 | 1010.4 |
| 20260506121520 | 57 | 71 | 0.0 | 2.0 | 0.07 | 0.41 | 0.41 | 96 | 1010.5 |
| 20260506121015 | 57 | 154 | 0.0 | 2.0 | 0.07 | 0.41 | 0.41 | 96 | 1010.6 |
| 20260506120514 | 57 | 165 | 2.0 | 4.0 | 0.07 | 0.40 | 0.40 | 96 | 1010.5 |
| 20260506120011 | 57 | 116 | 5.0 | 5.0 | 0.09 | 0.39 | 0.39 | 96 | 1010.5 |
| 20260506115509 | 56 | 122 | 2.0 | 4.0 | 0.14 | 0.39 | 0.39 | 96 | 1010.5 |
| 20260506115007 | 56 | 53 | 0.0 | 2.0 | 0.21 | 0.38 | 0.38 | 96 | 1010.4 |
| 20260506114504 | 56 | 94 | 1.0 | 2.0 | 0.17 | 0.36 | 0.36 | 96 | 1010.4 |
| 20260506114003 | 56 | 160 | 0.0 | 0.0 | 0.09 | 0.34 | 0.34 | 96 | 1010.5 |
| 20260506113500 | 56 | 57 | 1.0 | 2.0 | 0.02 | 0.33 | 0.33 | 96 | 1010.4 |
| 20260506112956 | 56 | 249 | 0.0 | 2.0 | 0.02 | 0.32 | 0.32 | 96 | 1010.2 |
| 20260506112453 | 56 | 231 | 1.0 | 2.0 | 0.05 | 0.32 | 0.32 | 96 | 1010.1 |
| 20260506111950 | 55 | 230 | 0.0 | 1.0 | 0.05 | 0.32 | 0.32 | 96 | 1010.2 |
| 20260506111449 | 55 | 25 | 1.0 | 1.0 | 0.07 | 0.32 | 0.32 | 96 | 1010.2 |
| 20260506110945 | 56 | 339 | 0.0 | 1.0 | 0.14 | 0.31 | 0.31 | 96 | 1010.1 |
| 20260506110443 | 55 | 268 | 2.0 | 2.0 | 0.14 | 0.30 | 0.30 | 96 | 1010.3 |
| 20260506105939 | 56 | 232 | 2.0 | 3.0 | 0.19 | 0.29 | 0.29 | 96 | 1010.6 |
| 20260506105436 | 55 | 224 | 3.0 | 4.0 | 0.24 | 0.28 | 0.28 | 95 | 1010.6 |
| 20260506104933 | 55 | 230 | 0.0 | 0.0 | 0.17 | 0.25 | 0.25 | 95 | 1010.6 |
| 20260506104431 | 55 | 76 | 0.0 | 2.0 | 0.12 | 0.23 | 0.23 | 95 | 1010.7 |
| 20260506103930 | 55 | 6 | 1.0 | 2.0 | 0.12 | 0.22 | 0.22 | 95 | 1011.0 |
| 20260506103427 | 55 | 338 | 1.0 | 2.0 | 0.09 | 0.21 | 0.21 | 95 | 1010.8 |
| 20260506102924 | 55 | 135 | 0.0 | 1.0 | 0.09 | 0.20 | 0.20 | 95 | 1010.7 |
| 20260506102421 | 55 | 222 | 3.0 | 3.0 | 0.14 | 0.19 | 0.19 | 95 | 1010.9 |
| 20260506101918 | 55 | 124 | 0.0 | 2.0 | 0.28 | 0.18 | 0.18 | 94 | 1010.7 |
| 20260506101414 | 55 | 71 | 2.0 | 3.0 | 0.26 | 0.17 | 0.17 | 94 | 1011.0 |
| 20260506100912 | 55 | 4 | 2.0 | 2.0 | 0.17 | 0.13 | 0.13 | 94 | 1011.2 |
| 20260506100410 | 55 | 312 | 1.0 | 2.0 | 0.21 | 0.12 | 0.12 | 94 | 1010.9 |
| 20260506095908 | 55 | 129 | 0.0 | 1.0 | 0.28 | 0.11 | 0.11 | 93 | 1010.8 |
| 20260506095406 | 55 | 85 | 1.0 | 3.0 | 0.21 | 0.08 | 0.08 | 93 | 1011.1 |
| 20260506094902 | 56 | 269 | 0.0 | 2.0 | 0.07 | 0.05 | 0.05 | 92 | 1011.3 |
| 20260506094401 | 56 | 252 | 2.0 | 2.0 | 0.07 | 0.04 | 0.04 | 92 | 1011.1 |
| 20260506093858 | 56 | 133 | 1.0 | 2.0 | 0.02 | 0.03 | 0.03 | 92 | 1010.9 |
| 20260506093356 | 56 | 135 | 0.0 | 0.0 | 0.02 | 0.03 | 0.03 | 91 | 1011.0 |
| 20260506092853 | 56 | 225 | 1.0 | 3.0 | 0.05 | 0.03 | 0.03 | 91 | 1011.1 |
| 20260506092351 | 56 | 348 | 0.0 | 2.0 | 0.05 | 0.02 | 0.02 | 90 | 1010.7 |
| 20260506091847 | 57 | 1 | 2.0 | 2.0 | 0.05 | 0.02 | 0.02 | 89 | 1010.7 |
| 20260506091346 | 57 | 83 | 1.0 | 2.0 | 0.05 | 0.02 | 0.02 | 88 | 1010.8 |
| 20260506090842 | 57 | 112 | 1.0 | 2.0 | 0.02 | 0.01 | 0.01 | 87 | 1010.7 |
| 20260506090340 | 57 | 97 | 0.0 | 2.0 | 0.00 | 0.01 | 0.01 | 86 | 1010.6 |
| 20260506085837 | 57 | 37 | 0.0 | 2.0 | 0.00 | 0.01 | 0.01 | 84 | 1010.5 |
| 20260506085333 | 58 | 337 | 1.0 | 2.0 | 0.00 | 0.01 | 0.01 | 83 | 1010.3 |
| 20260506084830 | 58 | 111 | 0.0 | 3.0 | 0.02 | 0.01 | 0.01 | 80 | 1010.4 |
| 20260506084326 | 59 | 224 | 1.0 | 2.0 | 0.02 | 0.01 | 0.01 | 78 | 1010.3 |
| 20260506083823 | 60 | 9 | 1.0 | 3.0 | 0.02 | 0.00 | 0.00 | 75 | 1010.6 |
| 20260506083320 | 60 | 102 | 0.0 | 1.0 | 0.02 | 0.00 | 0.00 | 72 | 1010.6 |
| 20260506082818 | 60 | 123 | 1.0 | 2.0 | 0.00 | 0.00 | 0.00 | 69 | 1010.9 |
| 20260506082314 | 57 | 50 | 1.0 | 4.0 | 0.00 | 0.00 | 0.00 | 77 | 1010.7 |
| 20260506081810 | 56 | 94 | 3.0 | 6.0 | 0.00 | 0.00 | 0.00 | 84 | 1010.6 |
| 20260506081309 | 56 | 311 | 2.0 | 2.0 | 0.00 | 0.00 | 0.00 | 84 | 1010.5 |
| 20260506080806 | 56 | 89 | 2.0 | 4.0 | 0.00 | 0.00 | 0.00 | 84 | 1010.3 |
| 20260506080302 | 56 | 91 | 3.0 | 3.0 | 0.00 | 0.00 | 0.00 | 84 | 1010.4 |
| 20260506073246 | 56 | 129 | 0.0 | 2.0 | 0.00 | 0.00 | 0.00 | 83 | 1010.3 |
| 20260506072743 | 56 | 303 | 1.0 | 2.0 | 0.00 | 0.00 | 0.00 | 83 | 1010.0 |
| 20260506072241 | 56 | 116 | 0.0 | 2.0 | 0.00 | 0.00 | 0.00 | 83 | 1010.1 |
| 20260506071738 | 56 | 283 | 1.0 | 1.0 | 0.00 | 0.00 | 0.00 | 83 | 1010.4 |
| 20260506071236 | 56 | 119 | 0.0 | 2.0 | 0.00 | 0.00 | 0.00 | 83 | 1010.2 |
| 20260506070733 | 56 | 135 | 0.0 | 2.0 | 0.00 | 0.00 | 0.00 | 82 | 1010.2 |
| 20260506070230 | 56 | 88 | 2.0 | 3.0 | 0.00 | 0.00 | 0.00 | 83 | 1010.2 |
| 20260506062207 | 57 | 129 | 0.0 | 2.0 | 0.00 | 0.00 | 0.00 | 81 | 1010.5 |
| 20260506061703 | 57 | 261 | 1.0 | 2.0 | 0.00 | 0.00 | 0.00 | 81 | 1010.7 |
| 20260506061200 | 57 | 1 | 0.0 | 1.0 | 0.00 | 0.00 | 0.00 | 81 | 1010.9 |
| 20260506060659 | 57 | 21 | 2.0 | 2.0 | 0.00 | 0.00 | 0.00 | 80 | 1011.1 |
| 20260506060155 | 57 | 60 | 0.0 | 1.0 | 0.00 | 0.00 | 0.00 | 79 | 1011.0 |
| 20260506051127 | 58 | 114 | 0.0 | 2.0 | 0.00 | 0.00 | 0.00 | 78 | 1011.5 |
| 20260506050626 | 58 | 259 | 1.0 | 2.0 | 0.00 | 0.00 | 0.00 | 77 | 1011.4 |
| 20260506050122 | 58 | 55 | 0.0 | 1.0 | 0.00 | 0.00 | 0.00 | 77 | 1011.5 |
| 20260506045115 | 58 | 20 | 1.0 | 3.0 | 0.00 | 0.00 | 0.00 | 77 | 1011.7 |
| 20260506044613 | 58 | 119 | 0.0 | 2.0 | 0.00 | 0.00 | 0.00 | 76 | 1011.8 |
| 20260506044110 | 58 | 136 | 1.0 | 2.0 | 0.00 | 0.00 | 0.00 | 76 | 1011.9 |
| 20260506043607 | 58 | 37 | 0.0 | 3.0 | 0.00 | 0.00 | 0.00 | 76 | 1012.0 |
| 20260506043105 | 58 | 17 | 0.0 | 2.0 | 0.00 | 0.00 | 0.00 | 75 | 1012.0 |
| 20260506042604 | 58 | 50 | 0.0 | 0.0 | 0.00 | 0.00 | 0.00 | 76 | 1011.8 |
| 20260506042102 | 59 | 109 | 2.0 | 2.0 | 0.00 | 0.00 | 0.00 | 76 | 1011.7 |
| 20260506041600 | 59 | 57 | 0.0 | 0.0 | 0.00 | 0.00 | 0.00 | 76 | 1011.9 |
| 20260506041057 | 59 | 89 | 0.0 | 1.0 | 0.00 | 0.00 | 0.00 | 75 | 1011.9 |
| 20260506040555 | 59 | 299 | 0.0 | 2.0 | 0.00 | 0.00 | 0.00 | 76 | 1011.8 |
| 20260506040051 | 59 | 25 | 0.0 | 1.0 | 0.00 | 0.00 | 0.00 | 74 | 1011.5 |
| 20260506035548 | 59 | 229 | 0.0 | 3.0 | 0.00 | 0.00 | 0.00 | 73 | 1011.9 |
| 20260506035044 | 59 | 259 | 1.0 | 2.0 | 0.00 | 0.00 | 0.00 | 74 | 1011.7 |
| 20260506034542 | 59 | 69 | 0.0 | 2.0 | 0.00 | 0.00 | 0.00 | 73 | 1011.9 |
| 20260506034038 | 59 | 304 | 0.0 | 0.0 | 0.00 | 0.00 | 0.00 | 72 | 1011.7 |
| 20260506033536 | 59 | 68 | 0.0 | 2.0 | 0.00 | 0.00 | 0.00 | 73 | 1011.8 |
| 20260506033033 | 59 | 52 | 2.0 | 2.0 | 0.00 | 0.00 | 0.00 | 73 | 1012.0 |
| 20260506032530 | 59 | 4 | 1.0 | 2.0 | 0.00 | 0.00 | 0.00 | 72 | 1011.8 |
| 20260506032026 | 59 | 212 | 0.0 | 2.0 | 0.00 | 0.00 | 0.00 | 73 | 1011.7 |
| 20260506031524 | 60 | 211 | 1.0 | 1.0 | 0.00 | 0.00 | 0.00 | 72 | 1011.9 |
| 20260506031021 | 60 | 66 | 0.0 | 0.0 | 0.00 | 0.00 | 0.00 | 72 | 1012.0 |
| 20260506030519 | 60 | 215 | 0.0 | 1.0 | 0.00 | 0.00 | 0.00 | 74 | 1012.1 |
| 20260506030016 | 60 | 98 | 2.0 | 3.0 | 0.00 | 0.00 | 0.00 | 71 | 1012.1 |
| 20260506025513 | 60 | 293 | 0.0 | 2.0 | 0.00 | 0.00 | 0.00 | 70 | 1012.0 |
| 20260506025009 | 59 | 97 | 1.0 | 2.0 | 0.00 | 0.00 | 0.00 | 69 | 1011.9 |
| 20260506024507 | 59 | 323 | 1.0 | 3.0 | 0.00 | 0.00 | 0.00 | 71 | 1012.0 |
| 20260506024002 | 59 | 117 | 0.0 | 2.0 | 0.00 | 0.00 | 0.00 | 70 | 1012.2 |
| 20260506023459 | 60 | 135 | 0.0 | 3.0 | 0.00 | 0.00 | 0.00 | 72 | 1012.2 |
| 20260506022955 | 60 | 199 | 0.0 | 1.0 | 0.00 | 0.00 | 0.00 | 69 | 1012.5 |
| 20260506022454 | 59 | 119 | 0.0 | 2.0 | 0.00 | 0.00 | 0.00 | 71 | 1012.7 |
| 20260506021951 | 59 | 129 | 0.0 | 0.0 | 0.00 | 0.00 | 0.00 | 70 | 1012.7 |
| 20260506021448 | 60 | 37 | 0.0 | 1.0 | 0.00 | 0.00 | 0.00 | 70 | 1012.5 |
| 20260506020945 | 60 | 119 | 0.0 | 0.0 | 0.00 | 0.00 | 0.00 | 67 | 1012.5 |
| 20260506020443 | 60 | 235 | 0.0 | 0.0 | 0.00 | 0.00 | 0.00 | 66 | 1012.6 |
| 20260506015940 | 60 | 129 | 0.0 | 2.0 | 0.00 | 0.00 | 0.00 | 66 | 1012.3 |
| 20260506015437 | 60 | 269 | 0.0 | 1.0 | 0.00 | 0.00 | 0.00 | 67 | 1012.5 |
| 20260506014934 | 60 | 191 | 0.0 | 2.0 | 0.00 | 0.00 | 0.00 | 66 | 1012.5 |
| 20260506014431 | 61 | 202 | 0.0 | 1.0 | 0.00 | 0.00 | 0.00 | 63 | 1012.6 |
| 20260506013927 | 61 | 103 | 2.0 | 2.0 | 0.00 | 0.00 | 0.00 | 63 | 1012.5 |
| 20260506013426 | 61 | 299 | 1.0 | 2.0 | 0.00 | 0.00 | 0.00 | 62 | 1012.4 |
| 20260506012922 | 61 | 99 | 2.0 | 3.0 | 0.00 | 0.00 | 0.00 | 62 | 1012.2 |
| 20260506012418 | 61 | 131 | 0.0 | 2.0 | 0.00 | 0.00 | 0.00 | 62 | 1012.5 |
| 20260506011915 | 60 | 104 | 1.0 | 2.0 | 0.00 | 0.00 | 0.00 | 63 | 1012.3 |
| 20260506011413 | 60 | 123 | 0.0 | 2.0 | 0.00 | 0.00 | 0.00 | 64 | 1012.4 |
| 20260506010909 | 60 | 131 | 2.0 | 2.0 | 0.00 | 0.00 | 0.00 | 63 | 1012.0 |
| 20260506010408 | 61 | 89 | 0.0 | 2.0 | 0.00 | 0.00 | 0.00 | 65 | 1012.1 |
| 20260506005904 | 61 | 213 | 0.0 | 1.0 | 0.00 | 0.00 | 0.00 | 64 | 1012.2 |
| 20260506005402 | 61 | 89 | 0.0 | 0.0 | 0.00 | 0.00 | 0.00 | 60 | 1012.2 |
| 20260506004857 | 62 | 84 | 1.0 | 3.0 | 0.00 | 0.00 | 0.00 | 63 | 1012.2 |
| 20260506004355 | 62 | 89 | 0.0 | 2.0 | 0.00 | 0.00 | 0.00 | 61 | 1012.3 |
| 20260506003851 | 62 | 116 | 2.0 | 2.0 | 0.00 | 0.00 | 0.00 | 62 | 1012.2 |
| 20260506003347 | 63 | 273 | 2.0 | 3.0 | 0.00 | 0.00 | 0.00 | 56 | 1012.0 |
| 20260506002844 | 63 | 226 | 0.0 | 2.0 | 0.00 | 0.00 | 0.00 | 58 | 1012.3 |
| 20260506002340 | 63 | 103 | 0.0 | 2.0 | 0.00 | 0.00 | 0.00 | 56 | 1012.0 |
| 20260506001836 | 64 | 230 | 0.0 | 1.0 | 0.00 | 0.00 | 0.00 | 57 | 1012.1 |
| 20260506001333 | 65 | 103 | 1.0 | 2.0 | 0.00 | 0.00 | 0.00 | 52 | 1012.2 |
| 20260506000830 | 65 | 44 | 1.0 | 2.0 | 0.00 | 0.00 | 0.00 | 50 | 1012.5 |
| 20260506000330 | 66 | 134 | 0.0 | 2.0 | 0.00 | 0.00 | 0.00 | 48 | 1012.2 |
| 20260505235824 | 67 | 222 | 0.0 | 0.0 | 0.00 | 0.00 | 0.00 | 46 | 1012.2 |
| 20260505235322 | 68 | 234 | 2.0 | 2.0 | 0.00 | 0.00 | 0.00 | 43 | 1012.2 |
| 20260505234819 | 68 | 41 | 1.0 | 2.0 | 0.00 | 0.00 | 0.00 | 42 | 1012.0 |
| 20260505234317 | 69 | 88 | 0.0 | 2.0 | 0.00 | 0.00 | 0.00 | 41 | 1011.9 |
| 20260505233813 | 70 | 184 | 0.0 | 2.0 | 0.00 | 0.00 | 0.00 | 39 | 1011.9 |
| 20260505233311 | 71 | 105 | 2.0 | 6.0 | 0.00 | 0.00 | 0.00 | 38 | 1011.9 |
| 20260505232808 | 71 | 358 | 2.0 | 3.0 | 0.00 | 0.00 | 0.00 | 38 | 1011.5 |
| 20260505232306 | 71 | 113 | 0.0 | 3.0 | 0.00 | 0.00 | 0.00 | 38 | 1012.0 |
| 20260505231802 | 71 | 73 | 1.0 | 7.0 | 0.00 | 0.00 | 0.00 | 36 | 1011.9 |
| 20260505231301 | 72 | 350 | 0.0 | 1.0 | 0.00 | 0.00 | 0.00 | 37 | 1011.8 |
| 20260505230758 | 72 | 246 | 5.0 | 6.0 | 0.00 | 0.00 | 0.00 | 37 | 1011.3 |
| 20260505230255 | 73 | 0 | 3.0 | 4.0 | 0.00 | 0.00 | 0.00 | 35 | 1011.7 |
| 20260505225752 | 73 | 266 | 0.0 | 3.0 | 0.00 | 0.00 | 0.00 | 34 | 1011.8 |
| 20260505225249 | 74 | 241 | 2.0 | 3.0 | 0.00 | 0.00 | 0.00 | 34 | 1012.0 |
| 20260505224743 | 74 | 353 | 3.0 | 3.0 | 0.00 | 0.00 | 0.00 | 34 | 1012.1 |